When you browse on this site, cookies collect data to enhance your experience and personalize the content and advertising you see.
Visit our Privacy Policy to learn more. By continuing to use the site, you agree to this use of cookies and data.
  • Em Portugal
  • Lista de países
  • Para 7 dias
  • Temperatura da água
  • Mapas de satélite
  • Mapa do tempo
  • Widgets de tempo
  • user-avatar
    Iniciar Sessão

    Previsão horária em Kryuchkovo

    Hoje, 23 Julho, Terça-feira

    Tempo Temperatura Precipitação Vento Pressão Humidade
    00:00 +16°C° 0 mm 1 m/s 745 mmHg 84%
    01:00 +15°C° 0 mm 1 m/s 745 mmHg 86%
    02:00 +15°C° 0 mm 1 m/s 745 mmHg 88%
    03:00 +15°C° 0 mm 1 m/s 745 mmHg 88%
    04:00 +15°C° 0 mm 1 m/s 745 mmHg 88%
    05:00 +15°C° 0 mm 1 m/s 744 mmHg 89%
    06:00 +18°C° 0 mm 1 m/s 744 mmHg 84%
    07:00 +19°C° 0 mm 1 m/s 745 mmHg 80%
    08:00 +20°C° 0 mm 1 m/s 745 mmHg 76%
    09:00 +20°C° 0.2 mm 2 m/s 744 mmHg 72%
    10:00 +23°C° 0.2 mm 2 m/s 744 mmHg 67%
    11:00 +24°C° 0.2 mm 3 m/s 744 mmHg 63%
    12:00 +24°C° 0.1 mm 3 m/s 744 mmHg 61%
    13:00 +25°C° 0.1 mm 3 m/s 744 mmHg 59%
    14:00 +25°C° 0.1 mm 3 m/s 744 mmHg 57%
    15:00 +24°C° 0.5 mm 3 m/s 744 mmHg 64%
    16:00 +23°C° 0.5 mm 2 m/s 745 mmHg 72%
    17:00 +23°C° 0.5 mm 2 m/s 745 mmHg 80%
    18:00 +20°C° 0.2 mm 2 m/s 744 mmHg 83%
    19:00 +20°C° 0.2 mm 1 m/s 744 mmHg 87%
    20:00 +18°C° 0.2 mm 1 m/s 744 mmHg 90%
    21:00 +16°C° 0 mm 1 m/s 745 mmHg 90%
    22:00 +16°C° 0 mm 1 m/s 745 mmHg 91%
    23:00 +15°C° 0 mm 1 m/s 745 mmHg 92%

    Amanhã, 24 Julho, Quarta-feira

    Tempo Temperatura Precipitação Vento Pressão Humidade
    00:00 +14°C° 0 mm 1 m/s 745 mmHg 92%
    01:00 +14°C° 0 mm 1 m/s 745 mmHg 92%
    02:00 +14°C° 0 mm 1 m/s 745 mmHg 92%
    03:00 +14°C° 0 mm 1 m/s 745 mmHg 93%
    04:00 +13°C° 0 mm 1 m/s 745 mmHg 93%
    05:00 +13°C° 0 mm 1 m/s 746 mmHg 93%
    06:00 +15°C° 0 mm 2 m/s 746 mmHg 87%
    07:00 +16°C° 0 mm 2 m/s 746 mmHg 81%
    08:00 +18°C° 0 mm 3 m/s 746 mmHg 75%
    09:00 +19°C° 0 mm 3 m/s 746 mmHg 67%
    10:00 +21°C° 0 mm 3 m/s 746 mmHg 59%
    11:00 +22°C° 0 mm 4 m/s 746 mmHg 52%
    12:00 +23°C° 0 mm 4 m/s 746 mmHg 50%
    13:00 +23°C° 0 mm 4 m/s 746 mmHg 48%
    14:00 +23°C° 0 mm 4 m/s 746 mmHg 46%
    15:00 +23°C° 0 mm 4 m/s 746 mmHg 49%
    16:00 +22°C° 0 mm 4 m/s 746 mmHg 53%
    17:00 +21°C° 0 mm 4 m/s 746 mmHg 56%
    18:00 +20°C° 0 mm 4 m/s 746 mmHg 64%
    19:00 +18°C° 0 mm 3 m/s 746 mmHg 73%
    20:00 +16°C° 0 mm 2 m/s 746 mmHg 82%
    21:00 +15°C° 0 mm 2 m/s 746 mmHg 85%
    22:00 +14°C° 0 mm 2 m/s 746 mmHg 88%
    23:00 +13°C° 0 mm 2 m/s 746 mmHg 91%

    Depois de amanhã, 25 Julho, Quinta-feira

    Tempo Temperatura Precipitação Vento Pressão Humidade
    00:00 +13°C° 0 mm 2 m/s 746 mmHg 93%
    01:00 +12°C° 0 mm 2 m/s 746 mmHg 94%
    02:00 +12°C° 0 mm 2 m/s 746 mmHg 95%
    03:00 +12°C° 0 mm 2 m/s 746 mmHg 94%
    04:00 +12°C° 0 mm 2 m/s 746 mmHg 93%
    05:00 +12°C° 0 mm 2 m/s 746 mmHg 92%
    06:00 +13°C° 0 mm 2 m/s 745 mmHg 87%
    07:00 +15°C° 0 mm 2 m/s 745 mmHg 82%
    08:00 +16°C° 0 mm 3 m/s 745 mmHg 77%
    09:00 +17°C° 0 mm 3 m/s 746 mmHg 78%
    10:00 +17°C° 0 mm 2 m/s 746 mmHg 79%
    11:00 +17°C° 0 mm 2 m/s 746 mmHg 80%
    12:00 +18°C° 0 mm 2 m/s 746 mmHg 79%
    13:00 +19°C° 0 mm 3 m/s 746 mmHg 77%
    14:00 +20°C° 0 mm 3 m/s 746 mmHg 76%
    15:00 +20°C° 0.3 mm 3 m/s 746 mmHg 80%
    16:00 +20°C° 0.3 mm 3 m/s 746 mmHg 84%
    17:00 +20°C° 0.3 mm 2 m/s 746 mmHg 88%
    18:00 +20°C° 0.5 mm 2 m/s 747 mmHg 91%
    19:00 +19°C° 0.5 mm 2 m/s 747 mmHg 94%
    20:00 +18°C° 0.5 mm 2 m/s 747 mmHg 96%
    21:00 +17°C° 0.1 mm 2 m/s 747 mmHg 97%
    22:00 +17°C° 0.1 mm 3 m/s 747 mmHg 97%
    23:00 +17°C° 0.1 mm 3 m/s 748 mmHg 98%

    26 Julho, Sexta-feira

    Tempo Temperatura Precipitação Vento Pressão Humidade
    00:00 +16°C° 0 mm 3 m/s 748 mmHg 98%
    01:00 +16°C° 0 mm 3 m/s 748 mmHg 98%
    02:00 +16°C° 0 mm 3 m/s 748 mmHg 98%
    03:00 +16°C° 0 mm 3 m/s 749 mmHg 98%
    04:00 +17°C° 0 mm 2 m/s 749 mmHg 98%
    05:00 +17°C° 0 mm 2 m/s 749 mmHg 97%
    06:00 +18°C° 0 mm 3 m/s 749 mmHg 93%
    07:00 +19°C° 0 mm 3 m/s 749 mmHg 88%
    08:00 +21°C° 0 mm 4 m/s 749 mmHg 83%
    09:00 +23°C° 0 mm 4 m/s 750 mmHg 74%
    10:00 +25°C° 0 mm 4 m/s 750 mmHg 65%
    11:00 +27°C° 0 mm 4 m/s 750 mmHg 56%
    12:00 +27°C° 0.2 mm 4 m/s 749 mmHg 58%
    13:00 +27°C° 0.2 mm 4 m/s 749 mmHg 59%
    14:00 +28°C° 0.2 mm 4 m/s 749 mmHg 61%
    15:00 +27°C° 0.3 mm 3 m/s 749 mmHg 67%
    16:00 +26°C° 0.3 mm 3 m/s 749 mmHg 72%
    17:00 +25°C° 0.3 mm 2 m/s 749 mmHg 78%
    18:00 +24°C° 0.1 mm 2 m/s 749 mmHg 81%
    19:00 +23°C° 0.1 mm 2 m/s 749 mmHg 85%
    20:00 +21°C° 0.1 mm 1 m/s 749 mmHg 89%
    21:00 +20°C° 0 mm 2 m/s 749 mmHg 91%
    22:00 +19°C° 0 mm 2 m/s 749 mmHg 93%
    23:00 +18°C° 0 mm 2 m/s 750 mmHg 95%

    27 Julho, Sábado

    Tempo Temperatura Precipitação Vento Pressão Humidade
    00:00 +19°C° 0 mm 1 m/s 750 mmHg 95%
    01:00 +18°C° 0 mm 1 m/s 749 mmHg 95%
    02:00 +18°C° 0 mm 1 m/s 749 mmHg 95%
    03:00 +18°C° 0 mm 1 m/s 749 mmHg 95%
    04:00 +18°C° 0 mm 1 m/s 749 mmHg 94%
    05:00 +18°C° 0 mm 1 m/s 749 mmHg 94%
    06:00 +20°C° 0 mm 1 m/s 749 mmHg 88%
    07:00 +21°C° 0 mm 2 m/s 749 mmHg 83%
    08:00 +24°C° 0 mm 2 m/s 749 mmHg 77%
    09:00 +25°C° 0.1 mm 2 m/s 749 mmHg 71%
    10:00 +26°C° 0.1 mm 2 m/s 749 mmHg 65%
    11:00 +28°C° 0.1 mm 2 m/s 749 mmHg 59%
    12:00 +28°C° 0.2 mm 2 m/s 749 mmHg 59%
    13:00 +28°C° 0.2 mm 3 m/s 748 mmHg 59%
    14:00 +28°C° 0.2 mm 3 m/s 748 mmHg 58%
    15:00 +28°C° 0.2 mm 2 m/s 748 mmHg 62%
    16:00 +28°C° 0.2 mm 2 m/s 747 mmHg 65%
    17:00 +27°C° 0.2 mm 2 m/s 747 mmHg 68%
    18:00 +26°C° 0 mm 2 m/s 747 mmHg 73%
    19:00 +24°C° 0 mm 2 m/s 747 mmHg 78%
    20:00 +21°C° 0 mm 2 m/s 747 mmHg 82%
    21:00 +20°C° 0 mm 2 m/s 747 mmHg 83%
    22:00 +19°C° 0 mm 2 m/s 747 mmHg 84%
    23:00 +19°C° 0 mm 1 m/s 746 mmHg 85%

    28 Julho, Domingo

    Tempo Temperatura Precipitação Vento Pressão Humidade
    00:00 +19°C° 0 mm 1 m/s 746 mmHg 87%
    01:00 +18°C° 0 mm 1 m/s 746 mmHg 88%
    02:00 +18°C° 0 mm 1 m/s 746 mmHg 90%
    03:00 +18°C° 0 mm 1 m/s 746 mmHg 91%
    04:00 +18°C° 0 mm 1 m/s 746 mmHg 93%
    05:00 +17°C° 0 mm 2 m/s 746 mmHg 94%
    06:00 +18°C° 0 mm 2 m/s 746 mmHg 89%
    07:00 +19°C° 0 mm 3 m/s 747 mmHg 85%
    08:00 +20°C° 0 mm 3 m/s 747 mmHg 80%
    09:00 +21°C° 0 mm 4 m/s 747 mmHg 71%
    10:00 +22°C° 0 mm 4 m/s 747 mmHg 61%
    11:00 +22°C° 0 mm 4 m/s 748 mmHg 52%
    12:00 +22°C° 0 mm 4 m/s 747 mmHg 49%
    13:00 +22°C° 0 mm 4 m/s 747 mmHg 47%
    14:00 +23°C° 0 mm 4 m/s 747 mmHg 44%
    15:00 +22°C° 0 mm 4 m/s 747 mmHg 45%
    16:00 +22°C° 0 mm 4 m/s 747 mmHg 45%
    17:00 +21°C° 0 mm 4 m/s 747 mmHg 45%
    18:00 +19°C° 0 mm 3 m/s 747 mmHg 53%
    19:00 +17°C° 0 mm 2 m/s 747 mmHg 62%
    20:00 +15°C° 0 mm 2 m/s 747 mmHg 70%
    21:00 +14°C° 0 mm 2 m/s 748 mmHg 72%
    22:00 +13°C° 0 mm 2 m/s 748 mmHg 74%
    23:00 +12°C° 0 mm 2 m/s 748 mmHg 75%
    Mostrar mais